Photometre #843[NE_1.6_Dp] Stornoway_MO AOT

File : 20200926_843.hum

26/09/2020,07:27:59,TEMP=9.4,BA=5.68,STAT.A,ExtBa=12.30
26/09/2020,07:33:02,TEMP=9.7,BA=5.64,STAT.A,ExtBa=12.20
26/09/2020,07:38:58,TEMP=10.0,BA=5.64,STAT.A,ExtBa=12.20
26/09/2020,07:46:03,TEMP=10.5,BA=5.64,STAT.A,ExtBa=12.20
26/09/2020,07:54:41,TEMP=10.7,BA=5.68,STAT.A,ExtBa=12.20
26/09/2020,08:05:26,TEMP=11.1,BA=5.68,STAT.A,ExtBa=12.20
26/09/2020,08:19:15,TEMP=11.1,BA=5.68,STAT.B,ExtBa=12.20
26/09/2020,08:28:14,TEMP=11.9,BA=5.64,STAT.A,ExtBa=12.10
26/09/2020,08:33:34,TEMP=11.9,BA=5.64,STAT.A,ExtBa=12.10
26/09/2020,08:42:17,TEMP=12.6,BA=5.68,STAT.A,ExtBa=12.10
26/09/2020,08:52:24,TEMP=12.7,BA=5.68,STAT.A,ExtBa=12.20
26/09/2020,09:04:19,TEMP=13.4,BA=5.68,STAT.C,ExtBa=12.20
26/09/2020,09:29:52,TEMP=16.3,BA=5.64,STAT.F,ExtBa=12.00
26/09/2020,09:40:17,TEMP=16.2,BA=5.64,STAT.D,ExtBa=11.90
26/09/2020,09:46:25,TEMP=14.8,BA=5.64,STAT.D,ExtBa=12.00
26/09/2020,10:01:25,TEMP=13.2,BA=5.64,STAT.D,ExtBa=12.10
26/09/2020,10:16:28,TEMP=13.0,BA=5.68,STAT.F,ExtBa=12.10
26/09/2020,10:31:25,TEMP=14.4,BA=5.68,STAT.D,ExtBa=12.10
26/09/2020,10:46:25,TEMP=15.9,BA=5.64,STAT.D,ExtBa=12.10
26/09/2020,11:01:25,TEMP=16.9,BA=5.64,STAT.D,ExtBa=12.10
26/09/2020,11:16:26,TEMP=17.5,BA=5.64,STAT.F,ExtBa=12.20
26/09/2020,11:41:27,TEMP=16.5,BA=5.64,STAT.D,ExtBa=11.90
26/09/2020,11:46:25,TEMP=16.2,BA=5.64,STAT.D,ExtBa=12.00
26/09/2020,12:01:25,TEMP=17.0,BA=5.64,STAT.D,ExtBa=12.10
26/09/2020,12:16:27,TEMP=17.9,BA=5.64,STAT.F,ExtBa=12.10
26/09/2020,12:40:31,TEMP=17.0,BA=5.60,STAT.D,ExtBa=11.90
26/09/2020,12:46:25,TEMP=16.6,BA=5.60,STAT.D,ExtBa=12.00
26/09/2020,13:01:25,TEMP=17.5,BA=5.64,STAT.D,ExtBa=12.10
26/09/2020,13:16:27,TEMP=18.5,BA=5.64,STAT.F,ExtBa=12.10
26/09/2020,13:31:25,TEMP=17.5,BA=5.64,STAT.D,ExtBa=12.00
26/09/2020,13:46:25,TEMP=15.6,BA=5.64,STAT.D,ExtBa=12.10
26/09/2020,14:01:25,TEMP=14.3,BA=5.64,STAT.D,ExtBa=12.10
26/09/2020,14:16:26,TEMP=15.7,BA=5.64,STAT.F,ExtBa=12.10
26/09/2020,14:31:25,TEMP=15.2,BA=5.64,STAT.D,ExtBa=12.00
26/09/2020,14:46:25,TEMP=16.0,BA=5.64,STAT.D,ExtBa=12.10
26/09/2020,15:01:25,TEMP=15.1,BA=5.64,STAT.D,ExtBa=12.10
26/09/2020,15:16:26,TEMP=13.3,BA=5.64,STAT.F,ExtBa=12.10
26/09/2020,15:41:45,TEMP=15.1,BA=5.60,STAT.C,ExtBa=11.90
26/09/2020,16:06:51,TEMP=15.2,BA=5.60,STAT.A,ExtBa=11.90
26/09/2020,16:11:18,TEMP=14.5,BA=5.56,STAT.A,ExtBa=11.90
26/09/2020,16:13:27,TEMP=14.7,BA=5.56,STAT.A,ExtBa=11.90
26/09/2020,16:15:37,TEMP=14.6,BA=5.56,STAT.A,ExtBa=11.90
26/09/2020,16:17:47,TEMP=14.5,BA=5.56,STAT.B,ExtBa=11.90
26/09/2020,16:27:26,TEMP=14.1,BA=5.52,STAT.A,ExtBa=11.90
26/09/2020,16:38:11,TEMP=13.6,BA=5.64,STAT.A,ExtBa=12.00
26/09/2020,16:46:49,TEMP=13.7,BA=5.60,STAT.A,ExtBa=12.00
26/09/2020,16:53:54,TEMP=13.8,BA=5.64,STAT.A,ExtBa=12.00
26/09/2020,16:59:50,TEMP=13.4,BA=5.64,STAT.A,ExtBa=12.00
26/09/2020,17:04:53,TEMP=13.0,BA=5.64,STAT.A,ExtBa=12.00